Inquirer Daily News

Weather

Get conditions and forecasts for any City, State, ZIP code or Country:  
Trenton, NJ
on Tuesday, December 4, 2012

Tuesday
Previous Day Next Day
Daily Summary
 ActualAverageRecord
Temperature
Mean Temperature °F 39°F  
Max Temperature 67°F 47°F 73°F (1998)
Min Temperature 49°F 32°F 10°F (1906)
Degree Days
Heating Degree Days 7 26  
Month to date heating degree days 61 101  
Since 1 July heating degree days 1068 1077  
Cooling Degree Days 0 0  
Month to date cooling degree days 0 0  
Year to date cooling degree days 1234 965  
Growing Degree Days7 (Base °F )  
Moisture
Dew Point 51°F   
Average Humidity 80    
Maximum Humidity 96    
Minimum Humidity 63    
Precipitation
Precipitation 0.01 in 0.14 in 1.77 in (1927)
Month to date precipitation 0.08 0.58  
Year to date precipitation 33.31 43.32  
Wind
Wind Speed 5 mph   
Max Wind Speed 13 mph   
Max Gust Speed 15 mph   
Visibility 9 miles   
Events Rain   

Key: T is trace of precipitation, MM is missing value
Source: NWS Daily Summary
Time(EST)TemperatureDew PointHumidity Pressure Visibility Wind DirectionWind SpeedGust SpeedPrecipitationEvents Conditions
1:53 AM 51.1°F 46.9°F 86% 30.23 in 9.0 miles Calm Calm - N/A   Overcast
2:53 AM 51.1°F 46.9°F 86% 30.23 in 8.0 miles Calm Calm - N/A   Mostly Cloudy
3:53 AM 51.1°F 46.9°F 86% 30.22 in 8.0 miles East 3.5 mph - N/A   Overcast
4:53 AM 50.0°F 46.9°F 89% 30.23 in 8.0 miles East 3.5 mph - 0.00 in   Overcast
5:53 AM 50.0°F 46.9°F 89% 30.23 in 7.0 miles Calm Calm - 0.00 in Rain Light Rain
6:53 AM 50.0°F 46.9°F 89% 30.24 in 6.0 miles ESE 3.5 mph - N/A   Overcast
7:53 AM 48.9°F 46.9°F 93% 30.23 in 3.0 miles Calm Calm - 0.01 in   Partly Cloudy
8:53 AM 52.0°F 50.0°F 93% 30.24 in 4.0 miles Calm Calm - N/A   Clear
9:53 AM 55.9°F 51.1°F 84% 30.24 in 7.0 miles SSW 4.6 mph - N/A   Clear
10:53 AM 60.1°F 52.0°F 75% 30.22 in 8.0 miles SW 8.1 mph - N/A   Partly Cloudy
11:53 AM 64.0°F 54.0°F 70% 30.18 in 10.0 miles SSW 10.4 mph - N/A   Clear
12:53 PM 66.0°F 54.0°F 65% 30.15 in 10.0 miles SW 9.2 mph - N/A   Clear
1:53 PM 66.0°F 54.0°F 65% 30.12 in 10.0 miles SSW 6.9 mph - N/A   Clear
2:53 PM 66.0°F 53.1°F 63% 30.11 in 10.0 miles SW 6.9 mph - N/A   Clear
3:53 PM 64.0°F 53.1°F 67% 30.10 in 10.0 miles SW 5.8 mph - N/A   Partly Cloudy
4:53 PM 61.0°F 52.0°F 72% 30.09 in 10.0 miles SSW 3.5 mph - N/A   Clear
5:53 PM 60.1°F 52.0°F 75% 30.08 in 10.0 miles South 5.8 mph - N/A   Clear
6:53 PM 59.0°F 53.1°F 81% 30.06 in 10.0 miles South 5.8 mph - N/A   Clear
7:53 PM 55.9°F 52.0°F 87% 30.05 in 10.0 miles SSW 5.8 mph - N/A   Clear
8:53 PM 55.9°F 51.1°F 84% 30.03 in 10.0 miles SSW 4.6 mph - N/A   Clear
9:53 PM 55.9°F 51.1°F 84% 30.01 in 10.0 miles South 8.1 mph - N/A   Mostly Cloudy
10:53 PM 55.0°F 51.1°F 86% 29.99 in 10.0 miles South 4.6 mph - N/A   Overcast
11:53 PM 55.0°F 51.1°F 86% 29.97 in 10.0 miles South 8.1 mph - N/A   Overcast
Astronomy
Sunrise:07:06 AM (EST) Moon Rise:10:18 PM (EST)12/4
Sunset:04:33 PM (EST) Moon Set:10:58 AM (EST)12/4
Moon Phase
Dec. 04 Dec. 06 Dec. 13 Dec. 20 Dec. 28

Copyright © 2014 The Weather Underground, Inc.